User: anonymous   Login
Location: Star Hoppers Observatory
(42.7905°N, 83.6127°W)
Time: 00:17:41
(UTC-04:00)
Language:

NOSS 3-1 (A) - Orbit

View from above orbital plane
View from above orbital plane
View from above satellite
View from above satellite

Ground track
Ground track

The orbit data is extracted from the following two-line orbital elements,

1 26905U 01040A   15213.42083009 0.00000000  00000-0  00000-0 0    08
2 26905  63.4260 343.6107 0309000 357.2764   2.7236 13.40722301    08
Epoch (UTC): 01 August 2015 10:05:59
Eccentricity: 0.0309000
inclination: 63.4260°
perigee height: 875 km
apogee height: 1338 km
right ascension of ascending node: 343.6107°
argument of perigee: 357.2764°
revolutions per day: 13.40722301
mean anomaly at epoch: 2.7236°
orbit number at epoch: 0

The dashed part of the orbit path shows where the satellite is in the earth's shadow,  

DLR